{"data":{"norad_id":67608,"intl_designator":"2026-018V","name":"STARLINK-36411","alt_names":[],"object_type":"PAYLOAD","status":"ACTIVE","operator":null,"country":"US","launch_date":"2026-01-29","launch_site_code":"AFWTR","launch_vehicle":null,"mission":null,"orbit_class":"UNKNOWN","rcs_meters":null,"size_class":null,"mass_kg":null,"dimensions":null,"purposes":["comms"],"wikipedia_slug":null,"has_3d_model":false,"image_url":null,"decayed_at":null,"tle_current":{"epoch":"2026-09-19T10:37:21.405504Z","epoch_age_seconds":160294,"freshness":"FRESH","line1":"1 67608U 26018V   26262.44260886  .00019045  00000+0  59067-3 0  9998","line2":"2 67608  97.2871 325.8465 0000216 249.8706 110.2513 15.33449900 37024","mean_motion":15.334499,"eccentricity":2.16e-5,"inclination_deg":97.2871,"raan_deg":325.8465,"arg_perigee_deg":249.8706,"mean_anomaly_deg":110.2513,"bstar":0.00059067,"rev_number":3702,"period_min":93.905904588079,"perigee_km":465.38077238753,"apogee_km":465.67641874126,"semimajor_km":6843.6655955644,"source":"CELESTRAK","updated_at":"2026-09-20T09:00:43.607236Z"}}}